GW3329 Weather Reports


Display with metric or nautical units.
time (UTC)temp
F
wind
direction
speed
MPH
gust
MPH
rain 1hr
in
rain 24hr
in
rain mn
in
humidity
%
barometer
mb
20260901054625 59 176 0.0 0.0 0.00 0.00 0.00 95 1018.1
20260901054121 59 210 0.0 0.0 0.00 0.00 0.00 94 1018.1
20260901053617 59 164 0.0 0.0 0.00 0.00 0.00 94 1018.2
20260901053112 59 164 0.0 0.0 0.00 0.00 0.00 94 1018.1
20260901052612 60 165 0.0 0.0 0.00 0.00 0.00 94 1018.3
20260901052108 60 171 0.0 0.0 0.00 0.00 0.00 94 1018.0
20260901051607 60 164 0.0 0.0 0.00 0.00 0.00 94 1018.2
20260901051106 60 164 0.0 0.0 0.00 0.00 0.00 93 1018.0
20260901050601 60 164 0.0 0.0 0.00 0.00 0.00 93 1017.9
20260901050056 61 163 0.0 0.0 0.00 0.00 0.00 93 1018.1
20260901045552 61 176 0.0 0.0 0.00 0.00 0.00 93 1018.0
20260901045046 61 179 0.0 1.0 0.00 0.00 0.00 93 1018.1
20260901044542 61 256 1.0 1.0 0.00 0.00 0.00 93 1018.3
20260901044038 61 190 1.0 1.0 0.00 0.00 0.00 92 1018.1
20260901043533 61 173 0.0 0.0 0.00 0.00 0.00 92 1018.0
20260901043029 61 170 0.0 0.0 0.00 0.00 0.00 91 1018.0
20260901042528 61 179 0.0 0.0 0.00 0.00 0.00 91 1018.1
20260901042023 62 194 0.0 1.0 0.00 0.00 0.00 90 1017.9
20260901041513 62 183 1.0 1.0 0.00 0.00 0.00 90 1018.0
20260901041008 62 169 0.0 0.0 0.00 0.00 0.00 90 1017.9
20260901040502 62 173 0.0 0.0 0.00 0.00 0.00 89 1017.7
20260901040001 62 174 1.0 2.0 0.00 0.00 0.00 89 1017.5
20260901035459 62 164 0.0 0.0 0.00 0.00 0.00 89 1017.4
20260901034953 63 239 2.0 2.0 0.00 0.00 0.00 88 1017.6
20260901034452 63 182 1.0 1.0 0.00 0.00 0.00 88 1017.5
20260901033948 63 170 0.0 1.0 0.00 0.00 0.00 87 1017.4
20260901033446 63 193 1.0 1.0 0.00 0.00 0.00 87 1017.2
20260901032945 63 164 0.0 0.0 0.00 0.00 0.00 86 1017.3
20260901032440 63 177 0.0 0.0 0.00 0.00 0.00 86 1017.2
20260901031935 64 165 0.0 0.0 0.00 0.00 0.00 85 1017.3
20260901031431 64 176 0.0 0.0 0.00 0.00 0.00 85 1017.0
20260901030930 64 147 0.0 0.0 0.00 0.00 0.00 85 1017.4
20260901030426 64 184 0.0 1.0 0.00 0.00 0.00 84 1017.1
20260901025925 64 250 2.0 2.0 0.00 0.00 0.00 84 1017.0
20260901025420 64 164 0.0 1.0 0.00 0.00 0.00 83 1017.2
20260901024919 65 164 0.0 0.0 0.00 0.00 0.00 82 1017.0
20260901024414 65 160 0.0 0.0 0.00 0.00 0.00 82 1017.1
20260901023913 66 123 0.0 0.0 0.00 0.00 0.00 81 1016.9
20260901023407 66 174 0.0 0.0 0.00 0.00 0.00 80 1016.9
20260901022902 66 165 0.0 1.0 0.00 0.00 0.00 80 1016.9
20260901022359 67 24 0.0 1.0 0.00 0.00 0.00 79 1017.2
20260901021853 67 173 0.0 1.0 0.00 0.00 0.00 78 1017.1
20260901021349 68 62 1.0 2.0 0.00 0.00 0.00 78 1016.9
20260901020843 68 129 0.0 1.0 0.00 0.00 0.00 77 1016.7
20260901020338 68 145 0.0 2.0 0.00 0.00 0.00 75 1017.0
20260901015833 69 149 0.0 0.0 0.00 0.00 0.00 75 1017.0
20260901015329 69 178 0.0 1.0 0.00 0.00 0.00 74 1017.0
20260901014828 69 68 2.0 3.0 0.00 0.00 0.00 74 1016.9
20260901014325 69 120 0.0 3.0 0.00 0.00 0.00 73 1016.7
20260901013820 70 40 0.0 3.0 0.00 0.00 0.00 72 1016.8
20260901013315 71 151 0.0 2.0 0.00 0.00 0.00 71 1017.0
20260901012811 71 85 0.0 1.0 0.00 0.00 0.00 71 1017.0
20260901012310 72 126 0.0 1.0 0.00 0.00 0.00 70 1016.8
20260901011806 73 108 1.0 2.0 0.00 0.00 0.00 69 1016.9
20260901011302 73 146 0.0 3.0 0.00 0.00 0.00 68 1016.8
20260901010756 73 182 1.0 2.0 0.00 0.00 0.00 68 1016.8
20260901010250 74 180 0.0 6.0 0.00 0.00 0.00 67 1016.8
20260901005749 74 273 3.0 4.0 0.00 0.00 0.00 66 1016.7
20260901005244 75 232 2.0 4.0 0.00 0.00 0.00 66 1016.8
20260901004738 75 219 2.0 6.0 0.00 0.00 0.00 65 1016.9
20260901004233 76 115 1.0 3.0 0.00 0.00 0.00 64 1016.9
20260901003728 77 226 3.0 6.0 0.00 0.00 0.00 63 1016.9
20260901003227 77 168 1.0 2.0 0.00 0.00 0.00 63 1016.7
20260901002721 77 197 2.0 3.0 0.00 0.00 0.00 63 1016.7
20260901002216 77 335 1.0 2.0 0.00 0.00 0.00 62 1016.9
20260901001711 77 307 0.0 2.0 0.00 0.00 0.00 64 1016.6
20260901001206 77 260 2.0 6.0 0.00 0.00 0.00 63 1016.8
20260901000701 79 251 2.0 6.0 0.00 0.00 0.00 62 1016.9
20260901000157 79 163 1.0 3.0 0.00 0.00 0.00 61 1016.7
20260831235650 80 164 0.0 3.0 0.00 0.00 0.00 61 1016.6
20260831235146 79 129 2.0 2.0 0.00 0.00 0.00 62 1016.6
20260831234645 79 151 1.0 2.0 0.00 0.00 0.00 61 1016.8
20260831234141 79 147 2.0 4.0 0.00 0.00 0.00 61 1016.7
20260831233636 80 285 4.0 4.0 0.00 0.00 0.00 61 1016.5
20260831233132 80 283 5.0 6.0 0.00 0.00 0.00 60 1016.6
20260831232626 80 143 2.0 3.0 0.00 0.00 0.00 60 1016.6
20260831232123 80 46 1.0 6.0 0.00 0.00 0.00 60 1016.5
20260831231619 81 197 1.0 2.0 0.00 0.00 0.00 59 1016.4
20260831231114 81 202 3.0 7.0 0.00 0.00 0.00 59 1016.5
20260831230610 81 223 3.0 4.0 0.00 0.00 0.00 59 1016.6
20260831230109 81 110 0.0 2.0 0.00 0.00 0.00 61 1016.8
20260831225604 81 135 0.0 6.0 0.00 0.00 0.00 61 1016.4
20260831225104 82 159 1.0 2.0 0.00 0.00 0.00 59 1016.6
20260831224600 81 89 2.0 2.0 0.00 0.00 0.00 61 1016.8
20260831224055 82 62 2.0 3.0 0.00 0.00 0.00 61 1016.6
20260831223551 82 149 4.0 4.0 0.00 0.00 0.00 60 1016.7
20260831223047 82 283 1.0 4.0 0.00 0.00 0.00 61 1016.7
20260831222543 82 28 3.0 7.0 0.00 0.00 0.00 61 1016.7
20260831222042 82 38 2.0 3.0 0.00 0.00 0.00 60 1016.7
20260831221538 82 219 4.0 7.0 0.00 0.00 0.00 61 1016.9
20260831221033 83 344 3.0 6.0 0.00 0.00 0.00 59 1017.0
20260831220528 83 165 0.0 8.0 0.00 0.00 0.00 60 1016.8
20260831220024 82 269 1.0 3.0 0.00 0.00 0.00 61 1017.2
20260831215519 82 96 1.0 10.0 0.00 0.00 0.00 62 1017.1
20260831215015 82 163 3.0 6.0 0.00 0.00 0.00 60 1017.0
20260831214513 82 267 5.0 8.0 0.00 0.00 0.00 60 1017.1
20260831214008 82 109 1.0 3.0 0.00 0.00 0.00 61 1017.2
20260831213504 83 210 2.0 6.0 0.00 0.00 0.00 61 1017.2
20260831213004 83 272 5.0 7.0 0.00 0.00 0.00 60 1017.3
20260831212500 82 130 1.0 4.0 0.00 0.00 0.00 62 1017.3
20260831211955 81 84 1.0 2.0 0.00 0.00 0.00 63 1017.2
20260831211450 83 69 1.0 6.0 0.00 0.00 0.00 62 1017.2
20260831210949 83 234 4.0 6.0 0.00 0.00 0.00 61 1017.3
20260831210444 83 227 4.0 6.0 0.00 0.00 0.00 61 1017.1
20260831205940 82 278 6.0 7.0 0.00 0.00 0.00 61 1017.6
20260831205435 82 166 3.0 7.0 0.00 0.00 0.00 61 1017.2
20260831204930 82 180 2.0 4.0 0.00 0.00 0.00 61 1017.5
20260831204430 82 161 1.0 6.0 0.00 0.00 0.00 62 1017.2
20260831203923 82 318 2.0 3.0 0.00 0.00 0.00 63 1017.3
20260831203418 82 292 5.0 8.0 0.00 0.00 0.00 62 1017.7
20260831202916 82 95 2.0 4.0 0.00 0.00 0.00 62 1017.3
20260831202411 82 50 2.0 3.0 0.00 0.00 0.00 63 1017.4
20260831201906 82 31 1.0 4.0 0.00 0.00 0.00 63 1017.5
20260831201404 82 205 4.0 6.0 0.00 0.00 0.00 62 1017.3
20260831200901 82 181 2.0 3.0 0.00 0.00 0.00 63 1017.4
20260831200355 82 281 4.0 6.0 0.00 0.00 0.00 62 1017.6
20260831195849 82 203 1.0 3.0 0.00 0.00 0.00 63 1017.6
20260831195345 82 38 3.0 6.0 0.00 0.00 0.00 63 1017.5
20260831194841 81 197 2.0 4.0 0.00 0.00 0.00 64 1017.5
20260831194336 81 44 1.0 4.0 0.00 0.00 0.00 64 1017.8
20260831193835 82 208 2.0 4.0 0.00 0.00 0.00 63 1017.6
20260831193330 81 324 2.0 3.0 0.00 0.00 0.00 63 1017.7
20260831192826 81 265 5.0 9.0 0.00 0.00 0.00 63 1017.8
20260831192320 81 337 4.0 7.0 0.00 0.00 0.00 63 1017.8
20260831191816 81 260 2.0 4.0 0.00 0.00 0.00 63 1018.1
20260831191312 81 69 2.0 4.0 0.00 0.00 0.00 62 1017.9
20260831190808 82 261 5.0 8.0 0.00 0.00 0.00 62 1017.8
20260831190308 82 144 1.0 4.0 0.00 0.00 0.00 61 1018.0
20260831185807 82 256 4.0 8.0 0.00 0.00 0.00 61 1017.9
20260831185306 82 160 2.0 3.0 0.00 0.00 0.00 61 1018.0
20260831184802 82 146 2.0 4.0 0.00 0.00 0.00 60 1017.8
20260831184258 82 291 2.0 4.0 0.00 0.00 0.00 59 1018.0
20260831183753 81 82 1.0 2.0 0.00 0.00 0.00 60 1017.9
20260831183252 81 283 2.0 3.0 0.00 0.00 0.00 59 1018.1
20260831182751 81 223 2.0 2.0 0.00 0.00 0.00 59 1018.0
20260831182246 81 240 1.0 3.0 0.00 0.00 0.00 60 1017.8
20260831181742 81 240 4.0 6.0 0.00 0.00 0.00 60 1017.6
20260831181237 81 297 6.0 8.0 0.00 0.00 0.00 60 1017.8
20260831180737 80 230 4.0 8.0 0.00 0.00 0.00 60 1018.0
20260831180232 81 203 4.0 7.0 0.00 0.00 0.00 59 1017.9
20260831175731 82 282 2.0 4.0 0.00 0.00 0.00 59 1017.6
20260831175228 82 271 2.0 3.0 0.00 0.00 0.00 60 1017.7
20260831174722 81 142 1.0 3.0 0.00 0.00 0.00 59 1017.7
20260831174218 81 305 2.0 4.0 0.00 0.00 0.00 60 1017.8
20260831173717 81 0 1.0 1.0 0.00 0.00 0.00 61 1017.8
20260831173207 81 295 2.0 3.0 0.00 0.00 0.00 61 1017.8
20260831172706 81 219 2.0 4.0 0.00 0.00 0.00 61 1017.8
20260831172202 80 15 2.0 2.0 0.00 0.00 0.00 63 1017.8
20260831171656 79 180 2.0 3.0 0.00 0.00 0.00 64 1017.7
20260831171154 79 147 1.0 4.0 0.00 0.00 0.00 63 1017.7
20260831170650 79 271 3.0 4.0 0.00 0.00 0.00 64 1017.7
20260831170147 78 223 1.0 6.0 0.00 0.00 0.00 65 1017.7
20260831165642 78 191 1.0 3.0 0.00 0.00 0.00 65 1017.7
20260831165138 77 259 2.0 3.0 0.00 0.00 0.00 67 1017.5
20260831164634 77 241 1.0 2.0 0.00 0.00 0.00 67 1017.7
20260831164130 78 263 4.0 6.0 0.00 0.00 0.00 67 1017.6
20260831163625 77 43 1.0 1.0 0.00 0.00 0.00 69 1017.5
20260831163121 77 39 1.0 3.0 0.00 0.00 0.00 69 1017.5
20260831162620 76 225 2.0 3.0 0.00 0.00 0.00 69 1017.3
20260831162117 75 114 0.0 1.0 0.00 0.00 0.00 73 1017.4
20260831161614 75 226 2.0 4.0 0.00 0.00 0.00 71 1017.6
20260831161110 75 304 1.0 2.0 0.00 0.00 0.00 73 1017.5
20260831160609 75 134 0.0 1.0 0.00 0.00 0.00 73 1017.5
20260831160105 74 117 0.0 1.0 0.00 0.00 0.00 74 1017.6
20260831155559 74 143 1.0 1.0 0.00 0.00 0.00 75 1017.5
20260831155054 73 135 0.0 1.0 0.00 0.00 0.00 76 1017.4
20260831154550 73 81 1.0 3.0 0.00 0.00 0.00 76 1017.4
20260831154050 72 143 0.0 1.0 0.00 0.00 0.00 77 1017.5
20260831153544 72 129 0.0 1.0 0.00 0.00 0.00 77 1017.3
20260831153041 72 18 0.0 0.0 0.00 0.00 0.00 77 1017.4
20260831152536 71 147 0.0 0.0 0.00 0.00 0.00 79 1017.3
20260831152032 70 153 1.0 2.0 0.00 0.00 0.00 81 1017.3
20260831151531 70 141 0.0 0.0 0.00 0.00 0.00 80 1017.2
20260831151031 70 141 0.0 0.0 0.00 0.00 0.00 82 1017.2
20260831150520 69 141 0.0 0.0 0.00 0.00 0.00 83 1017.2
20260831150017 69 139 0.0 0.0 0.00 0.00 0.00 84 1017.2
20260831145511 68 140 0.0 0.0 0.00 0.00 0.00 85 1017.1
20260831145007 67 140 0.0 0.0 0.00 0.00 0.00 87 1017.4
20260831144503 67 136 0.0 0.0 0.00 0.00 0.00 89 1017.0
20260831143957 66 133 0.0 0.0 0.00 0.00 0.00 93 1017.2
20260831143446 65 131 0.0 0.0 0.00 0.00 0.00 97 1017.1
20260831142942 64 128 0.0 0.0 0.00 0.00 0.00 99 1017.0
20260831142438 63 132 0.0 0.0 0.00 0.00 0.00 99 1016.9
20260831141932 62 147 0.0 0.0 0.00 0.00 0.00 99 1017.0
20260831141426 61 145 0.0 0.0 0.00 0.00 0.00 99 1016.8
20260831140921 61 145 0.0 0.0 0.00 0.00 0.00 99 1016.8
20260831140416 60 151 0.0 0.0 0.00 0.00 0.00 99 1016.8
20260831135915 59 153 0.0 0.0 0.00 0.00 0.00 99 1016.5
20260831135414 59 154 0.0 0.0 0.00 0.00 0.00 99 1016.6
20260831134909 59 155 0.0 0.0 0.00 0.00 0.00 99 1016.5
20260831134401 59 154 0.0 0.0 0.00 0.00 0.00 99 1016.5
20260831133859 59 154 0.0 0.0 0.00 0.00 0.00 99 1016.4
20260831133354 58 154 0.0 0.0 0.00 0.00 0.00 99 1016.2
20260831132849 59 155 0.0 0.0 0.00 0.00 0.00 99 1016.5
20260831132339 59 162 0.0 0.0 0.00 0.00 0.00 99 1016.4
20260831131838 59 160 0.0 0.0 0.00 0.00 0.00 99 1016.4
20260831131334 59 160 0.0 0.0 0.00 0.00 0.00 99 1016.4
20260831130829 59 160 0.0 0.0 0.00 0.00 0.00 99 1016.5
20260831130325 59 168 0.0 0.0 0.00 0.00 0.00 99 1016.4
20260831125824 58 166 0.0 0.0 0.00 0.00 0.00 98 1016.5
20260831125320 58 157 0.0 0.0 0.00 0.00 0.00 98 1016.5
20260831124819 59 148 0.0 0.0 0.00 0.00 0.00 98 1016.3
20260831124316 59 148 0.0 0.0 0.00 0.00 0.00 98 1016.4
20260831123815 59 148 0.0 0.0 0.00 0.00 0.00 98 1016.4
20260831123314 59 147 0.0 0.0 0.00 0.00 0.00 98 1016.5
20260831122809 59 155 0.0 0.0 0.00 0.00 0.00 98 1016.5
20260831122306 59 164 0.0 0.0 0.00 0.00 0.00 98 1016.3
20260831121759 59 156 0.0 0.0 0.00 0.00 0.00 98 1016.4
20260831121255 60 160 0.0 0.0 0.00 0.00 0.00 98 1016.4
20260831120750 60 160 0.0 0.0 0.00 0.00 0.00 98 1016.3
20260831120245 60 161 0.0 0.0 0.00 0.00 0.00 98 1016.3
20260831115740 60 169 0.0 0.0 0.00 0.00 0.00 98 1016.1
20260831115236 60 165 0.0 0.0 0.00 0.00 0.00 98 1016.1
20260831114735 60 189 0.0 0.0 0.00 0.00 0.00 97 1016.1
20260831114235 59 173 0.0 0.0 0.00 0.00 0.00 97 1016.1
20260831113730 60 181 0.0 0.0 0.00 0.00 0.00 97 1016.5
20260831113224 60 162 0.0 0.0 0.00 0.00 0.00 97 1016.1
20260831112718 59 161 0.0 0.0 0.00 0.00 0.00 97 1016.4
20260831112214 60 153 0.0 0.0 0.00 0.00 0.00 97 1016.4
20260831111709 60 160 0.0 0.0 0.00 0.00 0.00 97 1016.3
20260831111206 60 158 0.0 0.0 0.00 0.00 0.00 97 1016.4
20260831110701 60 159 0.0 0.0 0.00 0.00 0.00 97 1016.4
20260831110156 60 158 0.0 0.0 0.00 0.00 0.00 96 1016.1
20260831105655 60 158 0.0 0.0 0.00 0.00 0.00 96 1016.5
20260831105151 61 158 0.0 0.0 0.00 0.00 0.00 96 1016.3
20260831104645 61 159 0.0 0.0 0.00 0.00 0.00 96 1016.4
20260831104142 61 166 0.0 0.0 0.00 0.00 0.00 96 1016.6
20260831103637 61 156 0.0 0.0 0.00 0.00 0.00 95 1016.4
20260831103133 61 156 0.0 0.0 0.00 0.00 0.00 95 1016.5
20260831102632 61 158 0.0 0.0 0.00 0.00 0.00 95 1016.5
20260831102132 61 138 0.0 0.0 0.00 0.00 0.00 95 1016.5
20260831101633 61 149 0.0 0.0 0.00 0.00 0.00 95 1016.4
20260831101128 61 175 0.0 0.0 0.00 0.00 0.00 95 1016.3
20260831100624 62 177 0.0 0.0 0.00 0.00 0.00 95 1016.1
20260831100120 62 218 0.0 0.0 0.00 0.00 0.00 95 1016.5
20260831095618 62 185 0.0 0.0 0.00 0.00 0.00 95 1016.2
20260831095113 62 179 0.0 0.0 0.00 0.00 0.00 95 1016.4
20260831094609 62 175 0.0 0.0 0.00 0.00 0.00 95 1016.3
20260831094105 62 159 0.0 0.0 0.00 0.00 0.00 94 1015.9
20260831093600 62 160 0.0 0.0 0.00 0.00 0.00 94 1016.1
20260831093056 62 171 0.0 0.0 0.00 0.00 0.00 94 1016.3
20260831092552 62 164 0.0 0.0 0.00 0.00 0.00 94 1016.1
20260831092048 62 179 0.0 0.0 0.00 0.00 0.00 94 1016.2
20260831091548 62 162 0.0 0.0 0.00 0.00 0.00 93 1016.1
20260831091043 62 179 0.0 0.0 0.00 0.00 0.00 93 1016.1
20260831090538 62 162 0.0 0.0 0.00 0.00 0.00 92 1016.1
20260831090029 63 177 0.0 0.0 0.00 0.00 0.00 92 1016.1
20260831085524 63 166 0.0 0.0 0.00 0.00 0.00 93 1016.0
20260831085019 63 173 0.0 0.0 0.00 0.00 0.00 93 1016.1
20260831084515 63 157 0.0 0.0 0.00 0.00 0.00 93 1016.0
20260831084011 63 163 0.0 0.0 0.00 0.00 0.00 93 1016.3
20260831083511 63 163 0.0 0.0 0.00 0.00 0.00 92 1016.3
20260831083006 63 166 0.0 0.0 0.00 0.00 0.00 92 1016.4
20260831082500 63 172 0.0 0.0 0.00 0.00 0.00 92 1016.4
20260831081954 63 161 0.0 0.0 0.00 0.00 0.00 92 1016.2
20260831081450 63 162 0.0 0.0 0.00 0.00 0.00 92 1016.2
20260831080946 63 166 0.0 0.0 0.00 0.00 0.00 92 1016.2
20260831080441 63 168 0.0 0.0 0.00 0.00 0.00 92 1016.4
20260831075936 63 172 0.0 0.0 0.00 0.00 0.00 91 1016.1
20260831075431 63 161 0.0 0.0 0.00 0.00 0.00 91 1016.3
20260831074927 64 168 0.0 0.0 0.00 0.00 0.00 90 1016.1
20260831074421 64 156 0.0 0.0 0.00 0.00 0.00 90 1016.2
20260831073915 64 168 0.0 0.0 0.00 0.00 0.00 91 1015.9
20260831073415 64 165 0.0 1.0 0.00 0.00 0.00 90 1016.1
20260831072910 64 153 0.0 2.0 0.00 0.00 0.00 90 1015.9
20260831072405 64 308 2.0 3.0 0.00 0.00 0.00 90 1016.0
20260831071902 65 262 2.0 3.0 0.00 0.00 0.00 89 1016.1
20260831071400 65 220 1.0 2.0 0.00 0.00 0.00 88 1016.0
20260831070855 65 146 0.0 0.0 0.00 0.00 0.00 86 1016.1
20260831070354 66 167 0.0 1.0 0.00 0.00 0.00 86 1016.0
20260831065854 66 151 0.0 0.0 0.00 0.00 0.00 85 1016.1
20260831065351 66 151 0.0 0.0 0.00 0.00 0.00 85 1015.9
20260831064847 66 182 0.0 1.0 0.00 0.00 0.00 84 1016.0
20260831064342 67 259 2.0 2.0 0.00 0.00 0.00 84 1016.1
20260831063837 67 171 0.0 1.0 0.00 0.00 0.00 84 1015.8
20260831063332 67 274 2.0 2.0 0.00 0.00 0.00 83 1016.1
20260831062827 67 188 0.0 0.0 0.00 0.00 0.00 84 1016.0
20260831062322 66 151 0.0 0.0 0.00 0.00 0.00 85 1015.9
20260831061820 66 147 0.0 0.0 0.00 0.00 0.00 85 1015.8
20260831061314 66 148 0.0 0.0 0.00 0.00 0.00 85 1016.2
20260831060810 66 148 0.0 0.0 0.00 0.00 0.00 85 1016.1
20260831060305 66 131 0.0 0.0 0.00 0.00 0.00 85 1015.9
20260831055804 66 142 0.0 0.0 0.00 0.00 0.00 84 1015.8
20260831055259 66 158 0.0 0.0 0.00 0.00 0.00 85 1016.0
20260831054754 66 157 0.0 0.0 0.00 0.00 0.00 85 1016.0